Miscellaneous Local Product
Issued by NWS North Platte, NE

Home | Current Version | Previous Version | Graphics & Text | Print | Product List | Glossary On
Versions: 1 2 3 4 5 6 7 8 9 10 11 12 13 14 15 16 17 18 19 20 21 22 23 24 25 26 27 28 29 30 31 32 33 34 35 36 37 38 39 40 41 42 43 44 45 46 47 48 49 50
082
AXUS43 KLBF 211510
MISLBF


WESTERN AND NORTH CENTRAL NEBRASKA HOURLY WEATHER ROUNDUP
NATIONAL WEATHER SERVICE NORTH PLATTE NE
1000 AM CDT SUN MAY 21 2017

NOTE: "FAIR" INDICATES FEW OR NO CLOUDS BELOW 12,000 FEET WITH NO
SIGNIFICANT WEATHER AND/OR OBSTRUCTIONS TO VISIBILITY.

NOTE: STATIONS NOT REPORTING VARIABLES SUCH AS SKY/WEATHER OR
PRESSURE ARE PROVIDED BY RAWS AND APRS NETWORKS AND ARE NOT UNDER
NATIONAL WEATHER SERVICE QUALITY CONTROL.

...OBSERVATIONS IN AND NEAR THE EASTERN PANHANDLE OF NEBRASKA...

CITY           SKY/WX    TMP DP  RH WIND       PRES   REMARKS
PINE RIDGE     SUNNY     55  40  56 W9        30.12R
GORDON         FAIR      55  38  54 NW10      30.11S
CHADRON        SUNNY     56  41  57 NW10      30.13S
ALLIANCE       SUNNY     53  41  63 NW10      30.14S
SIDNEY         MOSUNNY   54  41  61 NW7       30.18S
CRESCENT LAKE    N/A     55  38  53 NW10        N/A
$$

...OBSERVATIONS IN NORTHERN NEBRASKA AND FAR SOUTHERN SOUTH DAKOTA...

CITY           SKY/WX    TMP DP  RH WIND       PRES   REMARKS
WINNER         FAIR      50  39  66 NW17      30.08R
VALENTINE      SUNNY     56  37  49 W10       30.08R
THEDFORD       SUNNY     46  39  74 W9        30.12R
AINSWORTH      SUNNY     51  44  76 NW3       30.09R
O`NEILL        SUNNY     50  38  62 NW16G23   30.08R
ORD            SUNNY     51  41  68 N10       30.09R
BROKEN BOW     SUNNY     54  44  69 NW15      30.09S
VALENTINE NWR    N/A     44  36  73 W7          N/A
HALSEY           N/A     47  37  68 W7          N/A
BUTTE            N/A     48  39  72 N18G28      N/A
CHAMBERS         N/A     54  39  57 N3          N/A
EWING            N/A     49  43  79 NW12        N/A
$$

...OBSERVATIONS IN SOUTHWEST NEBRASKA AND FAR NORTHEAST COLORADO...

CITY           SKY/WX    TMP DP  RH WIND       PRES   REMARKS
WRAY           FAIR      59  43  55 NW5       30.19R
IMPERIAL       SUNNY     59  41  51 W13       30.16R
OGALLALA       SUNNY     55  47  75 W10       30.16R
NORTH PLATTE   SUNNY     55  46  71 SW8       30.14R
MCCOOK         SUNNY     55  47  74 W6        30.16R
LEXINGTON      SUNNY     54  42  66 W12       30.14R
STAPLETON        N/A     56  43  62 CALM        N/A
GOTHENBURG       N/A     48  38  69 W5          N/A
CALLAWAY         N/A     48  43  84 NW8         N/A
$$

...OBSERVATIONS IN CENTRAL LINCOLN COUNTY AREA...

CITY           SKY/WX    TMP DP  RH WIND       PRES   REMARKS
N.P. AIRPORT   SUNNY     55  46  71 SW8       30.14R
N.P. DOWNTOWN    N/A     55  45  69 W3          N/A
N.P. SOUTHEAST   N/A     55  44  67 W3          N/A
N.P. HILLCREST   N/A     51  45  81 W7          N/A
$$

...SOME OBSERVATIONS FROM AROUND THE REGION...

CITY           SKY/WX    TMP DP  RH WIND       PRES   REMARKS
DENVER         MOSUNNY   55  32  41 W7        30.21R
LIMON          SUNNY     56  37  49 S13       30.22S
ASPEN          SUNNY     45  25  45 N5        30.26F
LARAMIE        CLOUDY    41  35  79 NW5       30.24S
CASPER         PTSUNNY   49  41  74 SW3       30.21R
CHEYENNE       CLOUDY    48  36  63 NW6       30.22R
SCOTTSBLUFF    PTSUNNY   53  41  63 W7        30.17S
GRAND ISLAND   SUNNY     54  40  59 W13       30.12R
OMAHA          PTSUNNY   50  40  68 NW14      30.06R
SIOUX FALLS    CLOUDY    44  39  82 NW21G29   29.96R
PIERRE         SUNNY     52  36  54 NW14      30.05S
RAPID CITY     SUNNY     60  37  42 N14       30.08S
BISMARCK       MOSUNNY   49  36  61 W5        30.03S
KANSAS CITY    MOSUNNY   53  40  61 NW16      30.14R
HILL CITY      SUNNY     63  46  54 NW6       30.17R
WICHITA        MOSUNNY   58  45  62 W5        30.19S
DODGE CITY     MOSUNNY   58  48  69 SW9       30.19F
OKLAHOMA CITY  MOSUNNY   63  42  46 E9        30.21R
DALLAS         CLOUDY    66  53  63 NE16      30.12F
AMARILLO       SUNNY     63  41  44 S20       30.22R
$$




USA.gov is the U.S. government's official web portal to all federal, state and local government web resources and services.